Find Praetorian SDA-615

NORAD ID: 65578 Int'l Des: 2025-203 Owner: SDA Country: US operational
LEOCIRCULARPOLAR

实时位置

正在加载3D地球...

关于 Praetorian SDA-615

正在加载描述...

即将过境

Passes for default location (London). Set your location on the main map for personalized predictions.

高度历史

Loading altitude history...

两行轨道根数

1 65578U 25203P 26106.87084182 .00000110 00000-0 87692-4 0 9994
2 65578 81.3014 67.3657 0009353 5.3325 354.7929 13.84427321 30223
Epoch: Apr 16, 2026 • Age: 22 hours

当前状态

高度 957.7 km
速度 7.37 km/s
星下点 -38.41°S, 75.29°W
发射日期 Sep 10, 2025
运行时间 0.5 years
类型 other

技术详情

分类 Payload
质量 300.00 kg
干质量 300.00 kg
总质量 300.00 kg
长度 1.00 m
直径 0.60 m
跨度 2.00 m
形状 Box + panels
制造商 YORKSS
平台类型 S-Class
阶段状态 In Orbit
所有者/国家 SDA/US

Most Searched